Location: Malanoce
(44.2500°N, 7.4667°E)
Time: 03:05:51
(UTC+00:00)

Cosmos 2061 Rocket - Visible Passes

Search period start: 11 February 2026 00:00
Search period end: 21 February 2026 00:00
Orbit: 966 x 1011 km, 82.9° (Epoch: 10 February)

Date Brightness Start Highest point End Pass type
(mag) Time Alt. Az. Time Alt. Az. Time Alt. Az.
11 Feb 5.5 18:50:18 10° NNW 18:56:04 37° W 19:01:45 10° SSW visible
12 Feb 7.2 04:57:29 10° E 04:59:21 11° ENE 05:01:14 10° ENE visible
12 Feb 4.0 17:33:31 10° N 17:39:54 68° E 17:46:09 10° SSE visible
12 Feb 6.5 19:20:29 10° NW 19:24:52 20° W 19:29:13 10° SW visible
13 Feb 6.7 05:23:11 10° SE 05:27:58 23° E 05:32:47 10° NE visible
13 Feb 4.5 18:02:48 10° NNW 18:09:06 67° W 18:15:19 10° S visible
14 Feb 5.6 05:50:52 10° SSE 05:56:49 42° E 06:02:48 10° NNE visible
14 Feb 5.7 18:32:25 10° NNW 18:38:06 36° W 18:43:42 10° SSW visible
15 Feb 7.2 04:39:05 10° E 04:41:21 12° ENE 04:43:39 10° NE visible
15 Feb 4.0 17:15:35 10° N 17:21:57 71° E 17:28:12 10° SSE visible
15 Feb 6.7 19:02:40 10° NW 19:06:53 19° W 19:11:04 10° WSW visible
16 Feb 6.6 05:05:06 10° SE 05:10:01 24° E 05:14:56 10° NNE visible
16 Feb 4.6 17:44:53 10° NNW 17:51:09 64° W 17:57:19 10° S visible
17 Feb 5.4 05:32:52 10° SSE 05:38:52 44° E 05:44:54 10° NNE visible
17 Feb 5.8 18:14:32 10° NNW 18:20:08 34° W 18:25:39 10° SSW visible
18 Feb 7.2 04:20:45 10° ESE 04:23:22 13° ENE 04:25:59 10° NE visible
18 Feb 6.9 18:44:51 10° NW 18:48:53 18° W 18:52:53 10° WSW visible
19 Feb 6.4 04:47:01 10° SE 04:52:02 25° E 04:57:04 10° NNE visible
19 Feb 4.8 17:26:58 10° NNW 17:33:12 61° W 17:39:19 10° S visible
20 Feb 5.3 05:14:51 10° SSE 05:20:54 46° E 05:27:00 10° NNE visible
20 Feb 6.0 17:56:40 10° NNW 18:02:09 32° W 18:07:35 10° SSW visible
